Terminal Aerodrome Forecast
Issued by NWS Grand Forks, ND

Home | Current Version | Previous Version | Graphics & Text | Print | Product List | Glossary On
Versions: 1 2 3 4 5 6 7 8 9 10 11 12 13 14 15 16 17 18
000
FTUS43 KFGF 280500
TAFFAR
TAF
KFAR 280531Z 2806/2906 16014G23KT P6SM OVC007
     FM280900 15010KT 5SM BR OVC004
     FM281600 VRB06KT P6SM OVC008
     FM282200 34014KT P6SM OVC015=

USA.gov is the U.S. government's official web portal to all federal, state and local government web resources and services.